JAL490 RJOK-RJTT

Flight info

Callsign JAL490
Flight time 0h 57m
Altitude 35000
Route MUROT MIYAT MERID KEC Y43 MENUR Y21 AKSEL
Aircraft B738/M-SDE2E3FGHIRWXY/LB1

Departure

Time 2026-04-30 19:56
Airport Kochi Ryoma Airport (RJOK)

Arrival

Time 2026-04-30 20:54
Airport Tokyo Haneda International Airport (RJTT)
Time Latitude Longitude Altitude Speed Heading
2026-04-30 19:40 33.54707 133.67358 36 ft 0 kts 41°
2026-04-30 19:48 33.54706 133.67357 36 ft 1 kts 41°
2026-04-30 19:48 33.54693 133.67343 34 ft 3 kts 41°
2026-04-30 19:48 33.54678 133.67328 34 ft 3 kts 41°
2026-04-30 19:49 33.54662 133.67312 34 ft 3 kts 41°
2026-04-30 19:49 33.54632 133.67280 32 ft 3 kts 41°
2026-04-30 19:49 33.54618 133.67265 34 ft 3 kts 57°
2026-04-30 19:50 33.54611 133.67245 35 ft 3 kts 96°
2026-04-30 19:50 33.54618 133.67225 33 ft 3 kts 128°
2026-04-30 19:50 33.54628 133.67210 33 ft 1 kts 131°
2026-04-30 19:50 33.54629 133.67209 33 ft 0 kts 131°
2026-04-30 19:53 33.54627 133.67212 36 ft 1 kts 131°
2026-04-30 19:53 33.54604 133.67244 34 ft 10 kts 131°
2026-04-30 19:53 33.54538 133.67335 36 ft 19 kts 130°
2026-04-30 19:53 33.54435 133.67479 36 ft 26 kts 131°
2026-04-30 19:54 33.54320 133.67638 36 ft 25 kts 130°
2026-04-30 19:54 33.54212 133.67790 34 ft 23 kts 130°
2026-04-30 19:54 33.54109 133.67933 35 ft 22 kts 130°
2026-04-30 19:54 33.54017 133.68051 36 ft 15 kts 148°
2026-04-30 19:55 33.53930 133.68020 35 ft 14 kts 223°
2026-04-30 19:55 33.53899 133.67925 35 ft 12 kts 294°
2026-04-30 19:55 33.53928 133.67879 35 ft 7 kts 310°
2026-04-30 19:55 33.54051 133.67708 34 ft 61 kts 311°
2026-04-30 19:56 33.54484 133.67106 35 ft 128 kts 311°
2026-04-30 19:56 33.55173 133.66151 236 ft 165 kts 313°
2026-04-30 19:56 33.55934 133.65109 938 ft 169 kts 316°
2026-04-30 19:56 33.56984 133.64492 1587 ft 177 kts 359°
2026-04-30 19:57 33.58201 133.64991 2013 ft 203 kts 39°
2026-04-30 19:57 33.59074 133.66404 2398 ft 225 kts 72°
2026-04-30 19:57 33.59363 133.68322 2690 ft 243 kts 83°
2026-04-30 19:57 33.59690 133.70386 2982 ft 264 kts 77°
2026-04-30 19:58 33.60037 133.72622 3426 ft 280 kts 92°
2026-04-30 19:58 33.59581 133.74869 4205 ft 279 kts 120°
2026-04-30 19:58 33.58446 133.76749 4959 ft 280 kts 134°
2026-04-30 19:58 33.57164 133.78523 5774 ft 282 kts 136°
2026-04-30 19:59 33.55867 133.80291 6607 ft 283 kts 137°
2026-04-30 19:59 33.54572 133.82057 7347 ft 288 kts 137°
2026-04-30 19:59 33.51928 133.85697 9051 ft 290 kts 137°
2026-04-30 20:00 33.50597 133.87539 9821 ft 294 kts 137°
2026-04-30 20:00 33.49242 133.89415 10408 ft 304 kts 138°
2026-04-30 20:00 33.47799 133.91404 10574 ft 328 kts 137°
2026-04-30 20:00 33.46259 133.93535 10820 ft 347 kts 137°
2026-04-30 20:01 33.43063 133.97992 12012 ft 359 kts 137°
2026-04-30 20:01 33.41428 134.00269 12732 ft 362 kts 137°
2026-04-30 20:01 33.39772 134.02567 13412 ft 367 kts 138°
2026-04-30 20:02 33.37311 134.08087 14698 ft 399 kts 106°
2026-04-30 20:02 33.36909 134.11405 15317 ft 408 kts 104°
2026-04-30 20:03 33.36223 134.18204 16523 ft 418 kts 104°
2026-04-30 20:03 33.35857 134.21685 17004 ft 424 kts 105°
2026-04-30 20:03 33.35466 134.25199 17615 ft 428 kts 105°
2026-04-30 20:03 33.35060 134.28744 18193 ft 432 kts 106°
2026-04-30 20:04 33.34646 134.32324 18764 ft 434 kts 106°
2026-04-30 20:04 33.34295 134.35929 19361 ft 438 kts 103°
2026-04-30 20:04 33.34089 134.39536 19926 ft 442 kts 102°
2026-04-30 20:05 33.33796 134.46926 21030 ft 447 kts 101°
2026-04-30 20:05 33.33640 134.50647 21574 ft 449 kts 102°
2026-04-30 20:05 33.33280 134.58137 22627 ft 452 kts 102°
2026-04-30 20:06 33.33089 134.61895 23130 ft 454 kts 102°
2026-04-30 20:06 33.32894 134.65679 23565 ft 456 kts 102°
2026-04-30 20:06 33.32701 134.69430 23914 ft 460 kts 101°
2026-04-30 20:06 33.32719 134.73304 24239 ft 473 kts 92°
2026-04-30 20:07 33.33136 134.77242 24601 ft 479 kts 89°
2026-04-30 20:07 33.33644 134.81202 24956 ft 483 kts 88°
2026-04-30 20:07 33.34645 134.89160 25605 ft 489 kts 89°
2026-04-30 20:08 33.35113 134.93209 25924 ft 492 kts 89°
2026-04-30 20:08 33.35573 134.97284 26243 ft 495 kts 89°
2026-04-30 20:08 33.36038 135.01386 26557 ft 498 kts 89°
2026-04-30 20:08 33.36505 135.05459 26850 ft 502 kts 89°
2026-04-30 20:09 33.36982 135.09609 27140 ft 505 kts 89°
2026-04-30 20:09 33.37464 135.13800 27433 ft 508 kts 89°
2026-04-30 20:09 33.38429 135.22233 27998 ft 514 kts 89°
2026-04-30 20:10 33.39397 135.30759 28557 ft 519 kts 89°
2026-04-30 20:10 33.39876 135.35001 28827 ft 522 kts 89°
2026-04-30 20:10 33.40362 135.39320 29106 ft 524 kts 89°
2026-04-30 20:11 33.41339 135.48038 29633 ft 529 kts 89°
2026-04-30 20:11 33.41827 135.52420 29887 ft 531 kts 89°
2026-04-30 20:11 33.42309 135.56758 30125 ft 533 kts 89°
2026-04-30 20:12 33.43285 135.65569 30781 ft 531 kts 89°
2026-04-30 20:12 33.43768 135.69951 31146 ft 529 kts 89°
2026-04-30 20:12 33.44248 135.74323 31483 ft 529 kts 89°
2026-04-30 20:13 33.44727 135.78693 31793 ft 529 kts 89°
2026-04-30 20:13 33.45388 135.83052 32099 ft 533 kts 84°
2026-04-30 20:13 33.46200 135.87339 32439 ft 534 kts 82°
2026-04-30 20:13 33.47081 135.91650 32793 ft 533 kts 82°
2026-04-30 20:14 33.47978 135.95971 33128 ft 532 kts 82°
2026-04-30 20:14 33.48862 136.00275 33456 ft 531 kts 82°
2026-04-30 20:14 33.49729 136.04586 33764 ft 530 kts 83°
2026-04-30 20:14 33.50576 136.08877 34064 ft 529 kts 83°
2026-04-30 20:15 33.51410 136.13165 34364 ft 527 kts 83°
2026-04-30 20:15 33.52225 136.17386 34660 ft 525 kts 83°
2026-04-30 20:15 33.53048 136.21667 34752 ft 528 kts 83°
2026-04-30 20:16 33.54703 136.30298 34752 ft 529 kts 83°
2026-04-30 20:16 33.56346 136.38842 34746 ft 522 kts 83°
2026-04-30 20:17 33.57959 136.47275 34754 ft 520 kts 83°
2026-04-30 20:17 33.59572 136.55754 34751 ft 519 kts 83°
2026-04-30 20:18 33.61166 136.64163 34748 ft 519 kts 83°
2026-04-30 20:18 33.62762 136.72606 34751 ft 519 kts 83°
2026-04-30 20:19 33.64358 136.81051 34753 ft 519 kts 83°
2026-04-30 20:19 33.65959 136.89460 34749 ft 519 kts 83°
2026-04-30 20:20 33.67551 136.97859 34754 ft 519 kts 83°
2026-04-30 20:20 33.69139 137.06281 34756 ft 520 kts 83°
2026-04-30 20:21 33.70742 137.14835 34752 ft 521 kts 83°
2026-04-30 20:21 33.72298 137.23280 34756 ft 521 kts 83°
2026-04-30 20:22 33.73856 137.31789 34757 ft 521 kts 84°
2026-04-30 20:22 33.75413 137.40310 34750 ft 521 kts 84°
2026-04-30 20:23 33.76961 137.48810 34755 ft 520 kts 84°
2026-04-30 20:23 33.78492 137.57255 34759 ft 519 kts 84°
2026-04-30 20:24 33.80023 137.65727 34760 ft 518 kts 84°
2026-04-30 20:24 33.81551 137.74193 34760 ft 517 kts 84°
2026-04-30 20:25 33.83831 137.86883 34764 ft 516 kts 84°
2026-04-30 20:26 33.86085 137.99509 34766 ft 516 kts 84°
2026-04-30 20:26 33.88333 138.12189 34771 ft 516 kts 84°
2026-04-30 20:27 33.91626 138.29009 34769 ft 523 kts 72°
2026-04-30 20:28 33.94928 138.36902 34423 ft 533 kts 63°
2026-04-30 20:28 33.98527 138.44683 32961 ft 537 kts 63°
2026-04-30 20:29 34.02121 138.52601 31489 ft 537 kts 63°
2026-04-30 20:30 34.07380 138.64459 29634 ft 529 kts 63°
2026-04-30 20:30 34.12470 138.75990 27930 ft 512 kts 64°
2026-04-30 20:31 34.17407 138.87198 26322 ft 495 kts 63°
2026-04-30 20:32 34.21652 138.96873 24942 ft 482 kts 64°
2026-04-30 20:32 34.25234 139.05160 23719 ft 474 kts 64°
2026-04-30 20:33 34.26749 139.08670 23173 ft 470 kts 64°
2026-04-30 20:33 34.29194 139.14550 22235 ft 460 kts 68°
2026-04-30 20:33 34.30449 139.18044 21747 ft 455 kts 69°
2026-04-30 20:34 34.32823 139.25077 20739 ft 447 kts 70°
2026-04-30 20:34 34.35169 139.32017 19732 ft 441 kts 70°
2026-04-30 20:35 34.36327 139.35401 19220 ft 439 kts 70°
2026-04-30 20:35 34.37497 139.38805 18714 ft 437 kts 70°
2026-04-30 20:35 34.39821 139.45556 17657 ft 432 kts 70°
2026-04-30 20:36 34.40970 139.48898 17146 ft 428 kts 70°
2026-04-30 20:36 34.42105 139.52203 16636 ft 423 kts 70°
2026-04-30 20:36 34.44323 139.58680 15719 ft 414 kts 71°
2026-04-30 20:37 34.45422 139.61893 15219 ft 411 kts 71°
2026-04-30 20:37 34.46514 139.65088 14736 ft 408 kts 71°
2026-04-30 20:37 34.47623 139.68240 14246 ft 407 kts 67°
2026-04-30 20:37 34.49166 139.71125 13770 ft 409 kts 53°
2026-04-30 20:38 34.51178 139.73553 13246 ft 409 kts 40°
2026-04-30 20:38 34.53541 139.75437 12846 ft 403 kts 31°
2026-04-30 20:38 34.55931 139.77123 12711 ft 390 kts 30°
2026-04-30 20:39 34.60459 139.80331 12400 ft 368 kts 31°
2026-04-30 20:39 34.62635 139.81909 12244 ft 359 kts 31°
2026-04-30 20:39 34.64748 139.83456 12106 ft 349 kts 32°
2026-04-30 20:40 34.68865 139.86087 11786 ft 333 kts 13°
2026-04-30 20:40 34.71100 139.86701 11628 ft 325 kts 10°
2026-04-30 20:40 34.73275 139.87232 11444 ft 319 kts
2026-04-30 20:41 34.77562 139.88272 11084 ft 309 kts
2026-04-30 20:41 34.79661 139.88795 10914 ft 306 kts 10°
2026-04-30 20:41 34.81743 139.89322 10748 ft 304 kts 10°
2026-04-30 20:41 34.83812 139.89850 10567 ft 303 kts 10°
2026-04-30 20:42 34.85876 139.90380 10402 ft 301 kts 10°
2026-04-30 20:42 34.87894 139.90901 10222 ft 300 kts 10°
2026-04-30 20:42 34.91984 139.91960 9896 ft 299 kts 11°
2026-04-30 20:43 34.94021 139.92489 9720 ft 300 kts 11°
2026-04-30 20:43 34.96060 139.93019 9529 ft 299 kts 11°
2026-04-30 20:43 34.98101 139.93549 9344 ft 299 kts 12°
2026-04-30 20:44 35.02137 139.94604 8996 ft 298 kts 12°
2026-04-30 20:44 35.04165 139.95130 8821 ft 297 kts 12°
2026-04-30 20:44 35.06873 139.95834 8590 ft 297 kts 12°
2026-04-30 20:45 35.10088 139.96671 8320 ft 296 kts 13°
2026-04-30 20:45 35.12120 139.97104 8119 ft 296 kts
2026-04-30 20:45 35.14093 139.96628 7951 ft 291 kts 332°
2026-04-30 20:46 35.17399 139.90958 7155 ft 276 kts 285°
2026-04-30 20:46 35.18100 139.88769 6877 ft 275 kts 286°
2026-04-30 20:47 35.19505 139.84468 6318 ft 273 kts 286°
2026-04-30 20:47 35.20344 139.82394 6033 ft 277 kts 305°
2026-04-30 20:48 35.23750 139.80263 5464 ft 281 kts 347°
2026-04-30 20:48 35.25655 139.79693 5162 ft 282 kts 347°
2026-04-30 20:48 35.27514 139.79127 4879 ft 282 kts 347°
2026-04-30 20:48 35.29443 139.78525 4555 ft 283 kts 347°
2026-04-30 20:49 35.31375 139.78254 4206 ft 276 kts 12°
2026-04-30 20:49 35.33129 139.78973 3925 ft 259 kts 35°
2026-04-30 20:49 35.34626 139.80125 3663 ft 249 kts 38°
2026-04-30 20:50 35.37452 139.82350 3143 ft 234 kts 38°
2026-04-30 20:50 35.38789 139.83390 2898 ft 222 kts 39°
2026-04-30 20:50 35.40067 139.84381 2634 ft 211 kts 39°
2026-04-30 20:50 35.41366 139.85160 2378 ft 211 kts 13°
2026-04-30 20:51 35.42814 139.85173 2238 ft 207 kts
2026-04-30 20:51 35.45593 139.84270 1782 ft 210 kts 334°
2026-04-30 20:51 35.46850 139.83429 1554 ft 199 kts 332°
2026-04-30 20:52 35.48004 139.82605 1347 ft 186 kts 332°
2026-04-30 20:52 35.49098 139.81823 1102 ft 178 kts 331°
2026-04-30 20:52 35.51051 139.80434 647 ft 145 kts 333°
2026-04-30 20:53 35.51877 139.79838 457 ft 139 kts 332°
2026-04-30 20:53 35.52722 139.79233 304 ft 140 kts 333°
2026-04-30 20:53 35.53552 139.78634 95 ft 136 kts 333°
2026-04-30 20:54 35.54836 139.77732 22 ft 50 kts 330°
2026-04-30 20:54 35.55058 139.77633 19 ft 21 kts 352°
2026-04-30 20:54 35.55178 139.77649 23 ft 16 kts 35°
2026-04-30 20:55 35.55224 139.77837 22 ft 8 kts 135°
2026-04-30 20:55 35.55180 139.77871 22 ft 7 kts 150°
2026-04-30 20:55 35.55136 139.77902 22 ft 7 kts 149°
2026-04-30 20:56 35.54999 139.77999 23 ft 18 kts 150°
2026-04-30 20:56 35.54924 139.78055 21 ft 6 kts 135°
2026-04-30 20:56 35.54931 139.78163 22 ft 7 kts 60°
2026-04-30 20:57 35.54954 139.78214 24 ft 6 kts 61°
2026-04-30 20:57 35.54962 139.78232 24 ft 0 kts 61°
2026-04-30 20:57 35.54964 139.78237 24 ft 0 kts 61°